TimeMST,TemperatureF,Dew PointF,Humidity,Sea Level PressureIn,VisibilityMPH,Wind Direction,Wind SpeedMPH,Gust SpeedMPH,PrecipitationIn,Events,Conditions,WindDirDegrees,DateUTC
12:57 AM,55.9,53.1,90,30.07,10.0,Calm,Calm,-,N/A,,Clear,0,2013-08-29 07:57:00
1:57 AM,54.0,52.0,93,30.07,10.0,Calm,Calm,-,N/A,,Clear,0,2013-08-29 08:57:00
2:57 AM,53.1,51.1,93,30.06,10.0,Calm,Calm,-,N/A,,Clear,0,2013-08-29 09:57:00
3:57 AM,52.0,50.0,93,30.06,10.0,Calm,Calm,-,N/A,,Clear,0,2013-08-29 10:57:00
4:57 AM,52.0,50.0,93,30.07,10.0,Calm,Calm,-,N/A,,Clear,0,2013-08-29 11:57:00
6:57 AM,55.0,53.1,93,30.13,10.0,Calm,Calm,-,N/A,,Mostly Cloudy,0,2013-08-29 13:57:00
7:57 AM,60.1,55.9,86,30.11,10.0,Calm,Calm,-,N/A,,Overcast,0,2013-08-29 14:57:00
8:57 AM,66.0,57.0,73,30.11,10.0,SSW,4.6,-,N/A,,Scattered Clouds,200,2013-08-29 15:57:00
9:57 AM,69.1,57.0,65,30.12,10.0,SSW,5.8,-,N/A,,Clear,210,2013-08-29 16:57:00
10:57 AM,72.0,55.9,57,30.11,10.0,North,4.6,-,N/A,,Scattered Clouds,360,2013-08-29 17:57:00
11:57 AM,71.1,57.9,63,30.09,10.0,South,12.7,-,N/A,,Overcast,190,2013-08-29 18:57:00
12:57 PM,69.1,55.9,63,30.12,10.0,NW,9.2,-,N/A,,Overcast,320,2013-08-29 19:57:00
1:04 PM,66.2,55.4,68,30.39,10.0,Variable,5.8,-,N/A,Thunderstorm,Thunderstorm,0,2013-08-29 20:04:00
1:57 PM,62.1,59.0,90,30.14,4.0,Variable,3.5,-,0.62,Rain-Thunderstorm,Thunderstorms and Rain,0,2013-08-29 20:57:00
2:04 PM,62.6,60.8,94,30.37,6.0,NW,6.9,-,0.04,Rain,Rain,320,2013-08-29 21:04:00
2:57 PM,64.0,61.0,90,30.12,6.0,WSW,6.9,-,0.06,,Mostly Cloudy,240,2013-08-29 21:57:00
3:57 PM,66.9,61.0,81,30.09,10.0,WSW,5.8,-,N/A,,Clear,240,2013-08-29 22:57:00
4:57 PM,69.1,60.1,73,30.09,10.0,SSW,8.1,-,N/A,,Clear,200,2013-08-29 23:57:00
5:57 PM,64.9,60.1,84,30.11,10.0,Calm,Calm,-,N/A,,Scattered Clouds,0,2013-08-30 00:57:00
6:57 PM,64.0,59.0,84,30.12,10.0,Calm,Calm,-,N/A,,Overcast,0,2013-08-30 01:57:00
7:57 PM,62.1,60.1,93,30.12,10.0,Calm,Calm,-,N/A,,Overcast,0,2013-08-30 02:57:00
8:57 PM,63.0,60.1,90,30.12,10.0,SW,4.6,-,N/A,,Overcast,230,2013-08-30 03:57:00
9:57 PM,62.1,59.0,90,30.12,10.0,Calm,Calm,-,N/A,,Overcast,0,2013-08-30 04:57:00
10:10 PM,62.6,60.8,94,30.43,10.0,Calm,Calm,-,N/A,,Overcast,0,2013-08-30 05:10:00
10:32 PM,60.8,57.2,88,30.43,10.0,ESE,10.4,-,N/A,,Overcast,120,2013-08-30 05:32:00
10:39 PM,59.0,53.6,82,30.43,10.0,ESE,8.1,-,N/A,,Overcast,110,2013-08-30 05:39:00
10:47 PM,57.2,53.6,88,30.43,2.5,South,6.9,-,0.01,Rain,Heavy Rain,170,2013-08-30 05:47:00
10:55 PM,55.4,55.4,100,30.44,1.8,Calm,Calm,-,0.16,Rain,Light Rain,0,2013-08-30 05:55:00
10:57 PM,57.0,54.0,89,30.15,2.5,Calm,Calm,-,0.16,Rain,Light Rain,0,2013-08-30 05:57:00
11:01 PM,57.2,55.4,94,30.44,9.0,WSW,3.5,-,0.00,Rain,Light Rain,250,2013-08-30 06:01:00
11:57 PM,57.0,55.9,96,30.15,6.0,Calm,Calm,-,0.04,Rain,Light Rain,0,2013-08-30 06:57:00